[[{"header":{"parameterUnit":"m.s-1","parameterCategory":1,"la1":30.2991,"la2":30.254,"lo1":-89.0895,"lo2":-89.0444,"dy":0.0017,"dx":0.0017,"nx":28,"ny":28,"refTime":"2024-04-06T21:00:00:Z","depth":0,"parameterNumber":2,"parameterNumberName":"U-component_of_WINDS"},"data":[0,0,0,0,0,0,0,0,0,0,0,0,0,0,0,0,0,0,0,0,0,0,0,0,0,0,0,0,0,0,0,0,0,0,0,0,0,0,0,0,0,0,0,0,0,0,0,0,0,0,0,0,0,0,0,0,0,0,-2.4194,-2.4195,0,-2.4274,-2.4275,-2.4276,-2.4308,-2.4308,-2.4308,-2.4308,-2.439,-2.4393,-2.4395,0,0,0,0,0,0,0,0,0,0,0,0,0,-2.4071,-2.4073,-2.4194,-2.4195,-2.4196,-2.4274,-2.4275,-2.4276,-2.4308,-2.4308,-2.4308,-2.4307,-2.439,-2.4392,-2.4395,0,0,0,0,0,0,0,0,0,0,0,0,0,-2.4135,-2.4074,-2.4194,-2.4222,-2.4225,-2.4274,-2.4275,-2.4276,-2.4308,-2.4308,-2.4308,-2.4307,-2.4389,-2.4392,-2.4396,-2.4423,0,0,-2.4407,-2.4408,0,0,0,0,0,0,0,0,-2.4131,-2.414,-2.4217,-2.422,-2.4224,-2.4281,-2.4262,-2.4326,-2.4308,-2.4277,-2.4308,-2.4307,-2.4354,-2.4361,-2.4376,-2.4427,-2.4431,-2.4407,-2.4409,-2.4411,-2.4412,0,0,0,0,0,0,0,-2.4127,-2.4136,-2.4226,-2.4218,-2.4222,-2.423,-2.4239,-2.4274,-2.4316,-2.4279,-2.4282,-2.4291,-2.4356,-2.4373,-2.4378,-2.4432,-2.4407,-2.441,-2.4412,-2.4414,-2.451,-2.4511,0,0,0,0,0,0,-2.4118,-2.4132,-2.4223,-2.4228,-2.4176,-2.4233,-2.4243,-2.4263,-2.4316,-2.4324,-2.4291,-2.4292,-2.4367,-2.4374,-2.4381,-2.4417,-2.4411,-2.4414,-2.4416,-2.451,-2.451,-2.4511,0,0,0,0,0,0,-2.4115,-2.4126,-2.422,-2.4181,-2.4194,-2.4235,-2.4258,-2.4264,-2.4281,-2.4325,-2.4332,-2.43,-2.4367,-2.4376,-2.4413,-2.4421,-2.4415,-2.4419,-2.4509,-2.451,-2.4511,-2.449,0,0,0,0,0,0,-2.4111,-2.4124,-2.4135,-2.4181,-2.4196,-2.425,-2.4258,-2.4266,-2.4287,-2.4289,-2.4335,-2.4343,-2.4367,-2.4407,-2.4416,-2.4426,-2.4422,-2.4509,-2.451,-2.451,-2.449,-2.4489,-2.4489,0,0,0,0,0,-2.4107,-2.4126,-2.4135,-2.4146,-2.421,-2.425,-2.4258,-2.4286,-2.4288,-2.4299,-2.4327,-2.4341,-2.4418,-2.4411,-2.4421,-2.4432,-2.4508,-2.4509,-2.451,-2.449,-2.4489,-2.4489,0,0,0,0,0,0,-2.4081,-2.4133,-2.4144,-2.4178,-2.4209,-2.4255,-2.427,-2.4285,-2.4317,-2.4317,-2.4351,-2.4361,-2.4394,-2.4417,-2.4407,-2.4461,-2.4465,-2.4468,-2.4445,-2.4445,-2.4445,-2.4439,-2.4425,0,0,0,0,0,-2.4079,-2.4107,-2.4151,-2.4178,-2.4192,-2.4229,-2.4247,-2.4266,-2.43,-2.4313,-2.4344,-2.4376,-2.4408,-2.4428,-2.446,-2.4493,-2.4504,-2.4506,-2.4505,-2.4505,-2.4507,-2.4527,-2.4528,-2.4514,-2.4514,-2.4514,0,0,-2.4076,-2.4108,-2.4123,-2.4173,-2.4199,-2.4228,-2.424,-2.4269,-2.4291,-2.4318,-2.4354,-2.4377,-2.4416,-2.4451,-2.4468,-2.4471,-2.4513,-2.4506,-2.4505,-2.4508,-2.4528,-2.4529,-2.453,-2.4515,-2.4514,-2.4514,0,0,-2.4084,-2.4111,-2.4136,-2.4162,-2.4201,-2.4225,-2.4231,-2.4275,-2.4292,-2.4328,-2.4349,-2.4375,-2.4429,-2.4456,-2.4476,-2.4495,-2.4509,-2.4504,-2.4502,-2.4521,-2.4522,-2.4523,-2.453,-2.4532,-2.4506,-2.4506,-2.4506,0,-2.4075,-2.4118,-2.4147,-2.4175,-2.4197,-2.4222,-2.4248,-2.4272,-2.432,-2.4334,-2.4336,-2.4404,-2.4432,-2.4474,-2.4478,-2.4494,-2.4502,-2.4499,-2.452,-2.4521,-2.4523,-2.4529,-2.4532,-2.4505,-2.4505,-2.4506,-2.4506,0,-2.4105,-2.4135,-2.415,-2.4195,-2.4218,-2.4245,-2.4278,-2.4299,-2.4315,-2.4339,-2.4376,-2.441,-2.4449,-2.446,-2.4477,-2.4505,-2.4505,-2.4513,-2.4517,-2.4523,-2.4529,-2.4532,-2.4504,-2.4504,-2.4505,-2.4505,0,0,-2.41,-2.416,-2.4165,-2.4185,-2.4231,-2.4254,-2.4283,-2.432,-2.4337,-2.4369,-2.4393,-2.4438,-2.4446,-2.4469,-2.449,-2.4506,-2.4518,-2.4512,-2.4514,-2.4512,-2.455,-2.4544,-2.4546,-2.4528,-2.4529,-2.4529,-2.4547,0,-2.4114,-2.4164,-2.4191,-2.4231,-2.4258,-2.4283,-2.4307,-2.4338,-2.4361,-2.4388,-2.4414,-2.4445,-2.4453,-2.4468,-2.4485,-2.4513,-2.4526,-2.4512,-2.4552,-2.4553,-2.4541,-2.455,-2.4543,-2.4558,-2.455,-2.455,-2.4551,0,-2.4137,-2.4168,-2.421,-2.4252,-2.4265,-2.4286,-2.4323,-2.4348,-2.4384,-2.44,-2.4425,-2.4445,-2.4476,-2.4478,-2.4521,-2.4511,-2.4529,-2.4545,-2.4546,-2.4551,-2.4552,-2.4554,-2.4563,-2.4566,-2.4555,-2.4555,-2.4555,0,-2.4128,-2.4181,-2.4213,-2.4229,-2.4279,-2.4294,-2.4315,-2.435,-2.4371,-2.4404,-2.4417,-2.4453,-2.4472,-2.45,-2.4529,-2.4527,-2.4569,-2.4573,-2.4583,-2.4583,-2.4591,-2.459,-2.4603,-2.4603,-2.4603,-2.4603,-2.4603,0,-2.4141,-2.4166,-2.4209,-2.4229,-2.4257,-2.4288,-2.4315,-2.4339,-2.437,-2.4395,-2.4419,-2.4442,-2.4479,-2.4507,-2.453,-2.4562,-2.4571,-2.4585,-2.4591,-2.4583,-2.4581,-2.4594,-2.4594,-2.4603,-2.4603,-2.4603,-2.4603,0,-2.4136,-2.4166,-2.4202,-2.4246,-2.4258,-2.4276,-2.4315,-2.4335,-2.4359,-2.439,-2.4399,-2.4438,-2.4472,-2.4504,-2.4549,-2.4565,-2.4597,-2.4605,-2.4585,-2.4588,-2.4596,-2.4595,-2.4618,-2.4623,-2.462,-2.462,-2.462,0,-2.4142,-2.4161,-2.4207,-2.4225,-2.4246,-2.4275,-2.4296,-2.4327,-2.4348,-2.439,-2.4405,-2.4441,-2.4471,-2.4524,-2.4557,-2.4592,-2.46,-2.4606,-2.4606,-2.4597,-2.46,-2.4598,-2.4601,-2.4605,-2.4605,-2.4605,-2.4605,0,-2.4149,-2.4163,-2.4192,-2.4226,-2.4251,-2.428,-2.4309,-2.4323,-2.436,-2.4383,-2.4418,-2.4441,-2.4487,-2.4522,-2.4561,-2.4584,-2.4601,-2.4605,-2.4609,-2.4601,-2.4588,-2.4595,-2.4583,-2.4604,-2.4604,-2.4604,-2.4604,-2.4604,-2.415,-2.4168,-2.4203,-2.4234,-2.426,-2.4287,-2.4308,-2.4335,-2.4364,-2.4403,-2.442,-2.4456,-2.4491,-2.4545,-2.4568,-2.4596,-2.46,-2.4606,-2.4607,-2.4608,-2.4606,-2.4584,-2.4603,-2.4603,-2.4603,-2.4603,-2.4604,0,-2.4158,-2.4182,-2.421,-2.4251,-2.4276,-2.4289,-2.4322,-2.4343,-2.4373,-2.4404,-2.4433,-2.4473,-2.4508,-2.4543,-2.4579,-2.4595,-2.4604,-2.4604,-2.4603,-2.4608,-2.4601,-2.4594,-2.4596,-2.4596,-2.4596,-2.4596,-2.4596,-2.4596,-2.4165,-2.4197,-2.4215,-2.4259,-2.4283,-2.4317,-2.4335,-2.436,-2.4385,-2.4429,-2.4457,-2.4479,-2.4512,-2.4551,-2.4584,-2.4593,-2.4605,-2.4603,-2.4614,-2.4608,-2.4608,-2.4608,-2.4602,-2.4605,-2.4605,-2.4619,-2.4619,-2.4619]},{"header":{"parameterUnit":"m.s-1","parameterCategory":1,"la1":30.2991,"la2":30.254,"lo1":-89.0895,"lo2":-89.0444,"dy":0.0017,"dx":0.0017,"nx":28,"ny":28,"refTime":"2024-04-06T21:00:00:Z","depth":0,"parameterNumber":3,"parameterNumberName":"V-component_of_WINDS"},"data":[0,0,0,0,0,0,0,0,0,0,0,0,0,0,0,0,0,0,0,0,0,0,0,0,0,0,0,0,0,0,0,0,0,0,0,0,0,0,0,0,0,0,0,0,0,0,0,0,0,0,0,0,0,0,0,0,0,0,4.5525,4.5525,0,4.5487,4.5487,4.5486,4.544,4.5439,4.5438,4.5437,4.5396,4.5396,4.5395,0,0,0,0,0,0,0,0,0,0,0,0,0,4.5556,4.5555,4.5525,4.5525,4.5524,4.5487,4.5487,4.5486,4.544,4.5439,4.5438,4.5437,4.5396,4.5396,4.5395,0,0,0,0,0,0,0,0,0,0,0,0,0,4.5533,4.5555,4.5525,4.5497,4.5494,4.5487,4.5487,4.5486,4.544,4.5439,4.5438,4.5437,4.5396,4.5396,4.5395,4.5413,0,0,4.5393,4.5393,0,0,0,0,0,0,0,0,4.5534,4.5531,4.5501,4.5499,4.5495,4.5467,4.5482,4.5461,4.544,4.546,4.5437,4.5436,4.542,4.5418,4.5413,4.5411,4.5409,4.5393,4.5393,4.5392,4.5392,0,0,0,0,0,0,0,4.5536,4.5533,4.551,4.5501,4.5497,4.5485,4.5481,4.5478,4.5447,4.5458,4.5455,4.5451,4.5418,4.5414,4.5412,4.5409,4.5393,4.5393,4.5392,4.5392,4.5421,4.5422,0,0,0,0,0,0,4.5542,4.5534,4.5511,4.5509,4.5512,4.5486,4.548,4.5477,4.5447,4.5441,4.5452,4.5449,4.5415,4.5412,4.541,4.543,4.5392,4.5392,4.5391,4.5419,4.5421,4.5422,0,0,0,0,0,0,4.5543,4.554,4.5513,4.5521,4.5516,4.5486,4.5483,4.5477,4.5472,4.5442,4.5436,4.5453,4.5414,4.5411,4.5413,4.5428,4.5392,4.5391,4.5418,4.542,4.5422,4.5469,0,0,0,0,0,0,4.5544,4.5541,4.5547,4.5521,4.5516,4.5517,4.5484,4.5477,4.5471,4.5467,4.5441,4.5436,4.5413,4.5414,4.5412,4.5426,4.539,4.5417,4.5419,4.5421,4.5466,4.5472,4.5477,0,0,0,0,0,4.5545,4.5562,4.5548,4.5545,4.5524,4.5518,4.5515,4.5489,4.5473,4.5479,4.546,4.5437,4.5426,4.5415,4.5412,4.5426,4.5416,4.5418,4.5421,4.5463,4.5471,4.5477,0,0,0,0,0,0,4.5589,4.5557,4.5542,4.5551,4.5538,4.551,4.5517,4.5498,4.5488,4.5484,4.5452,4.5446,4.5453,4.5439,4.5427,4.5442,4.5418,4.542,4.5451,4.5458,4.5463,4.5467,4.539,0,0,0,0,0,4.56,4.5598,4.557,4.5581,4.5575,4.5548,4.5544,4.5525,4.551,4.5504,4.5485,4.547,4.5464,4.546,4.5452,4.5464,4.5458,4.5472,4.5478,4.5483,4.5485,4.5491,4.5498,4.5431,4.5431,4.5431,0,0,4.5622,4.5605,4.5605,4.5589,4.5577,4.5576,4.5543,4.5543,4.5541,4.5503,4.5505,4.5491,4.5472,4.548,4.5482,4.5469,4.5502,4.5486,4.549,4.549,4.5495,4.5501,4.5507,4.5432,4.5432,4.5432,0,0,4.5662,4.5649,4.5656,4.5645,4.5627,4.5609,4.5611,4.5587,4.5576,4.5577,4.5549,4.5547,4.5536,4.5524,4.5517,4.5554,4.5533,4.5552,4.5582,4.5589,4.5594,4.5599,4.5613,4.5618,4.5555,4.5555,4.5555,0,4.5692,4.569,4.5663,4.5665,4.5659,4.5625,4.5633,4.5623,4.5603,4.56,4.5585,4.5572,4.5557,4.5562,4.5572,4.5566,4.5568,4.5555,4.5596,4.56,4.5604,4.5617,4.5622,4.5557,4.5557,4.5557,4.5557,0,4.5727,4.5726,4.5734,4.5718,4.5712,4.5717,4.5691,4.5689,4.5671,4.5654,4.5656,4.5638,4.5626,4.5626,4.5608,4.5629,4.5621,4.5602,4.5576,4.5613,4.5625,4.563,4.5561,4.556,4.5559,4.5559,0,0,4.5794,4.5763,4.5766,4.5759,4.5737,4.5735,4.5739,4.5729,4.5728,4.5715,4.5718,4.571,4.5693,4.5684,4.5665,4.5671,4.5703,4.5651,4.565,4.5662,4.5725,4.5741,4.5747,4.5688,4.5689,4.569,4.5727,0,4.583,4.5835,4.5812,4.5823,4.5822,4.5791,4.5794,4.5781,4.5765,4.5762,4.5744,4.574,4.5717,4.5712,4.5716,4.5698,4.5715,4.5695,4.569,4.569,4.5696,4.5753,4.5769,4.5805,4.5732,4.5732,4.5733,0,4.5873,4.5865,4.5876,4.5855,4.5854,4.5857,4.5846,4.5844,4.5828,4.5817,4.5809,4.5787,4.5788,4.5764,4.5767,4.5753,4.575,4.5741,4.5742,4.574,4.5714,4.5754,4.5816,4.5822,4.574,4.5739,4.5739,0,4.5922,4.5913,4.5919,4.5913,4.5888,4.5892,4.5881,4.5865,4.5861,4.5851,4.5848,4.5839,4.5834,4.5827,4.5803,4.5787,4.5808,4.5782,4.5799,4.58,4.5805,4.5805,4.5868,4.5802,4.5802,4.5802,4.5802,0,4.5966,4.5974,4.5941,4.5944,4.5953,4.5926,4.5935,4.5921,4.5907,4.5908,4.588,4.5881,4.5849,4.5846,4.5827,4.5833,4.583,4.5821,4.5816,4.5824,4.5826,4.5822,4.5819,4.5803,4.5803,4.5803,4.5803,0,4.6021,4.5999,4.6004,4.5981,4.5975,4.5982,4.5962,4.5965,4.5948,4.5949,4.5948,4.5921,4.5917,4.5893,4.5882,4.5869,4.5882,4.5871,4.5887,4.5884,4.5903,4.5902,4.5966,4.5974,4.5903,4.5903,4.5904,0,4.6051,4.6057,4.6035,4.6034,4.6025,4.6023,4.6019,4.5992,4.5989,4.5973,4.5978,4.5971,4.5965,4.5959,4.5939,4.5931,4.5921,4.5944,4.5919,4.5928,4.5922,4.5923,4.5923,4.5949,4.595,4.5951,4.5951,0,4.6107,4.6096,4.6091,4.6084,4.608,4.6072,4.6063,4.6063,4.6034,4.6032,4.6028,4.6023,4.6013,4.6007,4.5996,4.5985,4.5964,4.596,4.5963,4.5972,4.5981,4.5977,4.5903,4.5958,4.5957,4.5957,4.5957,4.5956,4.6151,4.6155,4.614,4.6137,4.6127,4.6119,4.6121,4.6105,4.6101,4.6092,4.6076,4.6075,4.606,4.6043,4.6034,4.6032,4.6019,4.6025,4.6026,4.6028,4.6032,4.5981,4.603,4.6029,4.6029,4.6029,4.6029,0,4.6206,4.6195,4.6192,4.618,4.6178,4.6158,4.6147,4.6146,4.6145,4.6134,4.6128,4.6124,4.6119,4.6099,4.6091,4.6093,4.6084,4.6092,4.6092,4.609,4.6043,4.6041,4.6101,4.6101,4.6101,4.6101,4.6101,4.6101,4.6234,4.6241,4.6228,4.623,4.6219,4.6218,4.6213,4.6206,4.6197,4.6193,4.6189,4.6176,4.6161,4.6153,4.6147,4.6141,4.614,4.6152,4.6144,4.61,4.6093,4.6087,4.6085,4.6152,4.6152,4.6191,4.6191,4.6191]}]]